TELLICO Weather Reports


time (UTC)temp
C
wind
direction
speed
KPH
gust
KPH
rain 1hr
cm
rain 24hr
cm
rain mn
cm
humidity
%
barometer
mb
20260504014537 13 0 0.0 0.0 0.00 0.00 0.00 63 1017.3
20260504013038 13 0 0.0 0.0 0.00 0.00 0.00 62 1017.2
20260504011541 14 0 0.0 0.0 0.00 0.00 0.00 62 1017.4
20260504010045 15 0 0.0 0.0 0.00 0.00 0.00 60 1017.2
20260504004543 15 0 0.0 1.6 0.00 0.00 0.00 58 1017.2
20260504003037 16 0 0.0 0.0 0.00 0.00 0.00 56 1016.7
20260504001539 16 0 0.0 1.6 0.00 0.00 0.00 54 1016.9
20260504000037 17 0 0.0 0.0 0.00 0.00 0.00 52 1017.0
20260503234540 17 0 0.0 1.6 0.00 0.00 0.00 50 1017.2
20260503233037 17 0 0.0 3.2 0.00 0.00 0.00 44 1017.3
20260503231538 17 0 0.0 6.4 0.00 0.00 0.00 42 1017.4
20260503230053 18 0 0.0 4.8 0.00 0.00 0.00 42 1017.5
20260503224537 18 0 0.0 4.8 0.00 0.00 0.00 42 1017.6
20260503223036 18 0 0.0 8.0 0.00 0.00 0.00 43 1017.6
20260503221547 18 0 0.0 4.8 0.00 0.00 0.00 40 1017.8
20260503220042 18 335 1.6 4.8 0.00 0.00 0.00 41 1018.0
20260503214551 18 115 1.6 6.4 0.00 0.00 0.00 40 1018.1
20260503213040 19 277 1.6 4.8 0.00 0.00 0.00 39 1018.2
20260503211537 19 0 0.0 4.8 0.00 0.00 0.00 38 1018.4
20260503210041 19 75 0.0 4.8 0.00 0.00 0.00 40 1018.6
20260503204544 20 178 1.6 6.4 0.00 0.00 0.00 40 1018.7
20260503203039 20 0 1.6 8.0 0.00 0.00 0.00 38 1019.0
20260503201541 20 133 1.6 6.4 0.00 0.00 0.00 40 1019.2
20260503200038 20 134 1.6 6.4 0.00 0.00 0.00 39 1019.6
20260503194542 20 297 1.6 9.7 0.00 0.00 0.00 38 1019.8
20260503193037 20 108 1.6 6.4 0.00 0.00 0.00 40 1019.9
20260503191540 20 232 0.0 6.4 0.00 0.00 0.00 38 1020.1
20260503190045 20 0 0.0 6.4 0.00 0.00 0.00 38 1020.3
20260503184539 20 352 1.6 4.8 0.00 0.00 0.00 38 1020.6
20260503183042 19 0 1.6 4.8 0.00 0.00 0.00 40 1020.7
20260503181556 19 211 1.6 4.8 0.00 0.00 0.00 41 1020.9
20260503180046 18 302 1.6 6.4 0.00 0.00 0.00 39 1021.0
20260503174536 18 288 1.6 6.4 0.00 0.00 0.00 40 1021.3
20260503173041 18 308 1.6 4.8 0.00 0.00 0.00 39 1021.4
20260503171538 17 323 1.6 8.0 0.00 0.00 0.00 41 1021.4
20260503081539 7 0 0.0 0.0 0.00 0.00 0.00 81 1020.1
20260503071537 8 0 0.0 0.0 0.00 0.00 0.00 77 1019.5
20260503054540 9 326 0.0 1.6 0.00 0.00 0.00 73 1019.2
20260503053034 10 326 0.0 1.6 0.00 0.00 0.00 71 1019.2
20260503051539 10 0 0.0 0.0 0.00 0.00 0.00 70 1018.8
20260503050038 10 0 0.0 1.6 0.00 0.00 0.00 70 1018.9
20260503044557 10 0 0.0 1.6 0.00 0.00 0.00 68 1019.0
20260503043037 11 326 0.0 3.2 0.00 0.00 0.00 67 1019.0
20260503041543 11 0 0.0 1.6 0.00 0.00 0.00 65 1018.7
20260503040049 12 0 0.0 0.0 0.00 0.00 0.00 64 1018.5
20260503034540 12 0 0.0 0.0 0.00 0.00 0.00 62 1018.6
20260503033042 12 0 0.0 0.0 0.00 0.00 0.00 62 1018.6
20260503031537 12 0 0.0 4.8 0.00 0.00 0.00 63 1018.7
20260503030037 12 0 0.0 3.2 0.00 0.00 0.00 60 1018.8
20260503024538 13 360 0.0 4.8 0.00 0.00 0.00 60 1018.6
20260503023041 13 0 0.0 1.6 0.00 0.00 0.00 60 1018.1
20260503021540 12 0 0.0 4.8 0.00 0.00 0.00 60 1018.0
20260503020037 12 135 1.6 6.4 0.00 0.00 0.00 59 1017.8